Location: Gökben Yaylas?
(36.8988°N, 29.6291°E)
Time: 14:45:52
(UTC+00:00)

USA 305 - Pass Details

Date: 15 May 2026
Orbit: 491 x 494 km, 54.4° (Epoch: 11 March)

Event Time Altitude Azimuth Distance (km) Brightness Sun altitude
Rises 18:05:07 0° 314° (NW) 2,594 8.2 -11.7°
Reaches altitude 10° 18:07:25 10° 313° (NW) 1,718 6.8 -12.1°
Maximum altitude 18:11:30 78° 227° (SW) 487 2.5 -12.8°
Enters shadow 18:13:40 23° 143° (SE) 984 3.5 -13.1°
